KI0MQ Weather Reports


Display with metric or nautical units.
time (UTC)temp
F
wind
direction
speed
MPH
gust
MPH
rain 1hr
in
rain 24hr
in
rain mn
in
humidity
%
barometer
mb
20260509005004 78 310 1.0 7.0 0.00 0.00 0.00 29 1004.5
20260509004509 78 334 1.0 7.0 0.00 0.00 0.00 29 1004.5
20260509004003 78 341 1.0 6.0 0.00 0.00 0.00 29 1004.4
20260509003503 79 343 2.0 6.0 0.00 0.00 0.00 29 1004.4
20260509003009 79 11 2.0 9.0 0.00 0.00 0.00 28 1004.4
20260509002503 80 6 2.0 9.0 0.00 0.00 0.00 29 1004.4
20260509001508 80 307 2.0 7.0 0.00 0.00 0.00 29 1004.3
20260509001003 80 322 1.0 7.0 0.00 0.00 0.00 29 1004.3
20260509000504 80 327 1.0 4.0 0.00 0.00 0.00 30 1004.3
20260508235503 79 343 2.0 7.0 0.00 0.00 0.00 31 1004.3
20260508235005 79 334 1.0 6.0 0.00 0.00 0.00 31 1004.3
20260508234003 79 317 1.0 5.0 0.00 0.00 0.00 31 1004.4
20260508233503 78 321 2.0 7.0 0.00 0.00 0.00 31 1004.4
20260508233009 78 290 2.0 7.0 0.00 0.00 0.00 32 1004.5
20260508232504 77 224 2.0 5.0 0.00 0.00 0.00 33 1004.4
20260508232004 77 215 1.0 5.0 0.00 0.00 0.00 33 1004.4
20260508231508 77 235 1.0 7.0 0.00 0.00 0.00 33 1004.4
20260508231005 78 242 3.0 7.0 0.00 0.00 0.00 31 1004.5
20260508230008 78 237 3.0 7.0 0.00 0.00 0.00 32 1004.3
20260508225503 79 233 3.0 7.0 0.00 0.00 0.00 32 1004.3
20260508225003 79 233 2.0 10.0 0.00 0.00 0.00 31 1004.3
20260508224508 79 262 1.0 10.0 0.00 0.00 0.00 31 1004.4
20260508224004 79 300 1.0 6.0 0.00 0.00 0.00 30 1004.5
20260508223504 79 251 1.0 6.0 0.00 0.00 0.00 32 1004.6
20260508223008 79 232 1.0 4.0 0.00 0.00 0.00 32 1004.5
20260508222503 78 234 2.0 4.0 0.00 0.00 0.00 32 1004.6
20260508222003 78 234 2.0 5.0 0.00 0.00 0.00 32 1004.7
20260508221508 77 228 2.0 5.0 0.00 0.00 0.00 33 1004.7
20260508221003 77 202 3.0 6.0 0.00 0.00 0.00 33 1004.8
20260508220504 77 195 3.0 8.0 0.00 0.00 0.00 33 1004.9
20260508214508 77 188 2.0 5.0 0.00 0.00 0.00 36 1005.0
20260508214003 76 189 2.0 6.0 0.00 0.00 0.00 33 1005.1
20260508213008 77 216 2.0 4.0 0.00 0.00 0.00 34 1005.2
20260508212004 76 175 1.0 3.0 0.00 0.00 0.00 33 1005.3
20260508211508 77 205 1.0 4.0 0.00 0.00 0.00 33 1005.3
20260508211004 77 216 2.0 6.0 0.00 0.00 0.00 33 1005.4
20260508210504 77 199 2.0 6.0 0.00 0.00 0.00 33 1005.5
20260508210009 77 195 2.0 5.0 0.00 0.00 0.00 34 1005.5
20260508205503 77 240 1.0 3.0 0.00 0.00 0.00 32 1005.6
20260508205004 77 239 1.0 3.0 0.00 0.00 0.00 34 1005.8
20260508204508 77 337 1.0 5.0 0.00 0.00 0.00 32 1005.8
20260508204004 77 335 2.0 5.0 0.00 0.00 0.00 35 1005.9
20260508203503 78 298 2.0 6.0 0.00 0.00 0.00 31 1006.0
20260508203008 78 259 2.0 6.0 0.00 0.00 0.00 32 1006.1
20260508202505 78 216 3.0 4.0 0.00 0.00 0.00 32 1006.0
20260508202003 78 196 3.0 5.0 0.00 0.00 0.00 33 1006.0
20260508201508 78 197 2.0 5.0 0.00 0.00 0.00 33 1006.2
20260508201003 78 192 2.0 4.0 0.00 0.00 0.00 31 1006.2
20260508200008 78 191 2.0 6.0 0.00 0.00 0.00 31 1006.4
20260508195503 77 206 2.0 6.0 0.00 0.00 0.00 37 1006.6
20260508195004 76 215 2.0 3.0 0.00 0.00 0.00 31 1006.6
20260508194508 77 193 1.0 4.0 0.00 0.00 0.00 34 1006.7
20260508194004 77 192 2.0 6.0 0.00 0.00 0.00 32 1006.7
20260508193504 77 193 2.0 6.0 0.00 0.00 0.00 30 1006.8
20260508192504 77 205 1.0 3.0 0.00 0.00 0.00 31 1006.8
20260508192003 77 221 1.0 3.0 0.00 0.00 0.00 33 1006.8
20260508191509 77 206 1.0 2.0 0.00 0.00 0.00 31 1006.9
20260508191003 78 192 1.0 4.0 0.00 0.00 0.00 30 1006.9
20260508190504 78 190 2.0 5.0 0.00 0.00 0.00 29 1007.0
20260508190008 78 188 2.0 5.0 0.00 0.00 0.00 30 1007.1
20260508185504 78 191 2.0 5.0 0.00 0.00 0.00 30 1007.1
20260508184508 78 230 1.0 3.0 0.00 0.00 0.00 30 1007.2
20260508184003 77 203 2.0 7.0 0.00 0.00 0.00 31 1007.3
20260508183503 76 189 3.0 7.0 0.00 0.00 0.00 32 1007.2
20260508183008 76 187 2.0 5.0 0.00 0.00 0.00 31 1007.4
20260508182003 76 190 1.0 4.0 0.00 0.00 0.00 32 1007.6
20260508181508 76 193 1.0 4.0 0.00 0.00 0.00 32 1007.6
20260508181004 75 199 2.0 4.0 0.00 0.00 0.00 33 1007.7
20260508180503 75 195 2.0 6.0 0.00 0.00 0.00 38 1007.7
20260508180008 74 194 2.0 6.0 0.00 0.00 0.00 36 1007.7
20260508175504 74 200 1.0 3.0 0.00 0.00 0.00 35 1007.8
20260508175003 74 189 1.0 3.0 0.00 0.00 0.00 34 1007.9
20260508174508 74 165 1.0 2.0 0.00 0.00 0.00 35 1007.9
20260508173504 73 192 1.0 4.0 0.00 0.00 0.00 37 1008.0
20260508173009 73 195 2.0 4.0 0.00 0.00 0.00 35 1008.0
20260508172503 73 194 2.0 4.0 0.00 0.00 0.00 35 1008.1
20260508172003 73 192 2.0 4.0 0.00 0.00 0.00 37 1008.2
20260508171509 73 192 2.0 4.0 0.00 0.00 0.00 37 1008.2
20260508171003 73 201 0.0 3.0 0.00 0.00 0.00 38 1008.2
20260508170503 72 328 0.0 2.0 0.00 0.00 0.00 46 1008.3
20260508170009 72 349 0.0 1.0 0.00 0.00 0.00 40 1008.4
20260508165503 71 347 0.0 1.0 0.00 0.00 0.00 43 1008.3
20260508165004 70 347 0.0 1.0 0.00 0.00 0.00 43 1008.4
20260508164507 70 322 0.0 1.0 0.00 0.00 0.00 42 1008.4
20260508164003 70 326 0.0 1.0 0.00 0.00 0.00 41 1008.4
20260508163503 70 340 0.0 2.0 0.00 0.00 0.00 40 1008.4
20260508163008 70 339 0.0 2.0 0.00 0.00 0.00 41 1008.5
20260508162005 69 207 1.0 3.0 0.00 0.00 0.00 43 1008.4
20260508161508 69 189 1.0 3.0 0.00 0.00 0.00 43 1008.5
20260508161003 69 183 1.0 4.0 0.00 0.00 0.00 45 1008.5
20260508160503 68 196 2.0 6.0 0.00 0.00 0.00 46 1008.4
20260508160009 68 194 2.0 6.0 0.00 0.00 0.00 47 1008.4
20260508155503 67 190 2.0 4.0 0.00 0.00 0.00 47 1008.5
20260508155004 67 191 1.0 4.0 0.00 0.00 0.00 49 1008.5
20260508154508 66 182 1.0 2.0 0.00 0.00 0.00 51 1008.5
20260508154003 66 191 2.0 4.0 0.00 0.00 0.00 49 1008.6
20260508153503 65 192 2.0 4.0 0.00 0.00 0.00 50 1008.6
20260508153008 65 192 2.0 4.0 0.00 0.00 0.00 50 1008.6
20260508152504 64 184 2.0 4.0 0.00 0.00 0.00 51 1008.6
20260508152003 64 182 2.0 4.0 0.00 0.00 0.00 53 1008.7
20260508151508 64 187 1.0 4.0 0.00 0.00 0.00 51 1008.8
20260508151003 64 191 1.0 4.0 0.00 0.00 0.00 56 1008.8
20260508150008 63 184 2.0 4.0 0.00 0.00 0.00 57 1008.9
20260508145505 63 189 2.0 5.0 0.00 0.00 0.00 55 1008.7
20260508145003 62 192 2.0 5.0 0.00 0.00 0.00 57 1008.6
20260508144508 62 192 1.0 3.0 0.00 0.00 0.00 59 1008.7
20260508144005 61 190 1.0 3.0 0.00 0.00 0.00 56 1008.8
20260508143503 61 198 1.0 3.0 0.00 0.00 0.00 57 1008.9
20260508143008 61 207 1.0 3.0 0.00 0.00 0.00 58 1009.0
20260508142504 60 196 1.0 3.0 0.00 0.00 0.00 58 1009.0
20260508142004 60 187 2.0 3.0 0.00 0.00 0.00 59 1009.1
20260508141508 59 183 1.0 3.0 0.00 0.00 0.00 59 1009.1
20260508141003 58 346 0.0 2.0 0.00 0.00 0.00 61 1009.1
20260508140504 58 0 0.0 0.0 0.00 0.00 0.00 66 1009.0
20260508140008 57 0 0.0 0.0 0.00 0.00 0.00 68 1009.1
20260508135503 56 0 0.0 0.0 0.00 0.00 0.00 71 1009.0
20260508135003 55 0 0.0 0.0 0.00 0.00 0.00 72 1009.1
20260508134508 54 0 0.0 0.0 0.00 0.00 0.00 74 1009.1
20260508134003 54 0 0.0 0.0 0.00 0.00 0.00 73 1009.1
20260508133505 54 0 0.0 0.0 0.00 0.00 0.00 75 1009.1
20260508133008 53 0 0.0 0.0 0.00 0.00 0.00 75 1009.2
20260508132503 53 0 0.0 0.0 0.00 0.00 0.00 75 1009.2
20260508132003 53 0 0.0 0.0 0.00 0.00 0.00 74 1009.1
20260508131508 53 0 0.0 0.0 0.00 0.00 0.00 73 1009.2
20260508131004 53 0 0.0 0.0 0.00 0.00 0.00 72 1009.0
20260508130504 53 0 0.0 0.0 0.00 0.00 0.00 72 1008.9
20260508130008 52 0 0.0 0.0 0.00 0.00 0.00 73 1008.8
20260508125503 52 0 0.0 0.0 0.00 0.00 0.00 72 1008.8
20260508125004 52 0 0.0 0.0 0.00 0.00 0.00 72 1008.7
20260508124509 52 0 0.0 0.0 0.00 0.00 0.00 71 1008.5
20260508124004 52 0 0.0 0.0 0.00 0.00 0.00 71 1008.5
20260508123503 52 0 0.0 0.0 0.00 0.00 0.00 70 1008.5
20260508123008 52 0 0.0 0.0 0.00 0.00 0.00 70 1008.5
20260508122503 52 0 0.0 0.0 0.00 0.00 0.00 69 1008.6
20260508122004 52 0 0.0 0.0 0.00 0.00 0.00 69 1008.6
20260508121508 52 0 0.0 0.0 0.00 0.00 0.00 68 1008.6
20260508121003 52 0 0.0 0.0 0.00 0.00 0.00 68 1008.7
20260508120008 52 0 0.0 0.0 0.00 0.00 0.00 66 1008.6
20260508115503 52 0 0.0 0.0 0.00 0.00 0.00 66 1008.6
20260508115005 52 334 0.0 2.0 0.00 0.00 0.00 67 1008.7
20260508114509 52 352 0.0 2.0 0.00 0.00 0.00 66 1008.7
20260508114003 51 17 0.0 2.0 0.00 0.00 0.00 66 1008.8
20260508113008 50 0 0.0 0.0 0.00 0.00 0.00 71 1008.9
20260508112505 50 0 0.0 0.0 0.00 0.00 0.00 71 1008.7
20260508112003 50 0 0.0 0.0 0.00 0.00 0.00 69 1008.5
20260508111003 50 0 0.0 0.0 0.00 0.00 0.00 69 1008.6
20260508110504 50 0 0.0 0.0 0.00 0.00 0.00 69 1008.7
20260508110008 50 0 0.0 0.0 0.00 0.00 0.00 69 1008.7
20260508105503 50 0 0.0 0.0 0.00 0.00 0.00 68 1008.6
20260508103503 51 0 0.0 0.0 0.00 0.00 0.00 65 1008.8
20260508103008 51 0 0.0 0.0 0.00 0.00 0.00 66 1008.7
20260508102503 51 37 0.0 1.0 0.00 0.00 0.00 66 1008.8
20260508102004 51 37 0.0 2.0 0.00 0.00 0.00 65 1008.6
20260508101508 51 37 0.0 2.0 0.00 0.00 0.00 64 1008.7
20260508101004 51 0 0.0 0.0 0.00 0.00 0.00 65 1009.1
20260508100504 51 0 0.0 0.0 0.00 0.00 0.00 65 1009.2
20260508100008 51 37 0.0 1.0 0.00 0.00 0.00 64 1009.3
20260508095505 51 37 0.0 1.0 0.00 0.00 0.00 66 1009.3
20260508095004 51 36 0.0 1.0 0.00 0.00 0.00 66 1009.1
20260508094508 51 36 0.0 1.0 0.00 0.00 0.00 67 1009.1
20260508094003 51 36 0.0 1.0 0.00 0.00 0.00 65 1009.0
20260508093504 51 36 0.0 1.0 0.00 0.00 0.00 65 1009.1
20260508093008 52 0 0.0 0.0 0.00 0.00 0.00 65 1009.1
20260508092504 52 0 0.0 0.0 0.00 0.00 0.00 63 1009.1
20260508092003 52 0 0.0 0.0 0.00 0.00 0.00 61 1009.1
20260508091508 53 36 0.0 1.0 0.00 0.00 0.00 61 1009.1
20260508091003 53 36 0.0 1.0 0.00 0.00 0.00 61 1009.2
20260508090503 54 37 0.0 1.0 0.00 0.00 0.00 61 1009.2
20260508090008 54 37 0.0 1.0 0.00 0.00 0.00 60 1009.0
20260508085504 54 0 0.0 0.0 0.00 0.00 0.00 60 1009.2
20260508085004 54 37 0.0 1.0 0.00 0.00 0.00 60 1009.3
20260508084508 54 37 0.0 1.0 0.00 0.00 0.00 61 1009.1
20260508084003 55 37 0.0 1.0 0.00 0.00 0.00 60 1009.0
20260508082503 55 0 0.0 0.0 0.00 0.00 0.00 58 1009.3
20260508082004 55 0 0.0 0.0 0.00 0.00 0.00 55 1009.3
20260508081507 55 37 0.0 1.0 0.00 0.00 0.00 59 1009.0
20260508080504 55 37 0.0 1.0 0.00 0.00 0.00 61 1009.0
20260508080009 55 37 0.0 1.0 0.00 0.00 0.00 61 1009.4
20260508075503 55 37 0.0 1.0 0.00 0.00 0.00 59 1009.4
20260508074508 55 37 0.0 1.0 0.00 0.00 0.00 60 1009.4
20260508074003 55 0 0.0 0.0 0.00 0.00 0.00 59 1009.6
20260508073008 55 36 0.0 1.0 0.00 0.00 0.00 60 1009.4
20260508072504 55 36 0.0 1.0 0.00 0.00 0.00 60 1009.4
20260508072004 55 36 0.0 1.0 0.00 0.00 0.00 60 1009.3
20260508071508 55 31 0.0 1.0 0.00 0.00 0.00 56 1009.0
20260508071003 54 25 0.0 1.0 0.00 0.00 0.00 58 1008.8
20260508070503 54 0 0.0 0.0 0.00 0.00 0.00 61 1009.1
20260508070009 54 0 0.0 0.0 0.00 0.00 0.00 63 1009.1
20260508065503 55 25 0.0 1.0 0.00 0.00 0.00 61 1009.4
20260508065003 54 25 0.0 1.0 0.00 0.00 0.00 61 1009.4
20260508064004 54 0 0.0 0.0 0.00 0.00 0.00 66 1009.5
20260508063503 53 0 0.0 0.0 0.00 0.00 0.00 64 1009.5
20260508063008 53 0 0.0 0.0 0.00 0.00 0.00 66 1009.6
20260508062504 53 0 0.0 0.0 0.00 0.00 0.00 65 1009.5
20260508062003 53 0 0.0 0.0 0.00 0.00 0.00 67 1009.6
20260508061508 53 0 0.0 0.0 0.00 0.00 0.00 67 1009.7
20260508061003 53 0 0.0 0.0 0.00 0.00 0.00 67 1009.5
20260508060504 53 0 0.0 0.0 0.00 0.00 0.00 67 1009.4
20260508060009 53 0 0.0 0.0 0.00 0.00 0.00 66 1009.3
20260508055503 53 0 0.0 0.0 0.00 0.00 0.00 67 1009.3
20260508054508 52 0 0.0 0.0 0.00 0.00 0.00 68 1009.2
20260508054004 52 0 0.0 0.0 0.00 0.00 0.00 67 1009.2
20260508053503 52 0 0.0 0.0 0.00 0.00 0.00 68 1009.1
20260508052503 52 0 0.0 0.0 0.00 0.00 0.00 67 1009.1
20260508052004 52 0 0.0 0.0 0.00 0.00 0.00 66 1009.1
20260508050504 52 0 0.0 0.0 0.00 0.00 0.00 66 1009.2
20260508050009 52 0 0.0 0.0 0.00 0.00 0.00 65 1009.3
20260508045504 52 0 0.0 0.0 0.00 0.00 0.00 64 1009.3
20260508045004 52 0 0.0 0.0 0.00 0.00 0.00 64 1009.4
20260508044508 52 0 0.0 0.0 0.00 0.00 0.00 64 1009.4
20260508044003 51 0 0.0 0.0 0.00 0.00 0.00 64 1009.5
20260508043008 52 0 0.0 0.0 0.00 0.00 0.00 63 1009.5
20260508042503 52 0 0.0 0.0 0.00 0.00 0.00 63 1009.4
20260508042004 52 0 0.0 0.0 0.00 0.00 0.00 62 1009.3
20260508041508 52 0 0.0 0.0 0.00 0.00 0.00 60 1009.3
20260508041003 52 0 0.0 0.0 0.00 0.00 0.00 60 1009.4
20260508040503 52 0 0.0 0.0 0.00 0.00 0.00 60 1009.5
20260508040008 52 0 0.0 0.0 0.00 0.00 0.00 60 1009.5
20260508035503 52 0 0.0 0.0 0.00 0.00 0.00 60 1009.5
20260508035004 52 0 0.0 0.0 0.00 0.00 0.00 60 1009.4
20260508034507 52 0 0.0 0.0 0.00 0.00 0.00 61 1009.3
20260508033504 53 0 0.0 0.0 0.00 0.00 0.00 56 1009.4
20260508033007 54 0 0.0 0.0 0.00 0.00 0.00 55 1009.3
20260508032504 54 0 0.0 0.0 0.00 0.00 0.00 55 1009.4
20260508032003 54 0 0.0 0.0 0.00 0.00 0.00 55 1009.4
20260508031005 55 0 0.0 0.0 0.00 0.00 0.00 54 1009.4
20260508030503 55 0 0.0 0.0 0.00 0.00 0.00 53 1009.4
20260508030008 56 0 0.0 0.0 0.00 0.00 0.00 53 1009.3
20260508025503 56 0 0.0 0.0 0.00 0.00 0.00 52 1009.3
20260508025003 56 0 0.0 0.0 0.00 0.00 0.00 50 1009.2
20260508024508 57 0 0.0 0.0 0.00 0.00 0.00 50 1009.2
20260508024003 57 0 0.0 0.0 0.00 0.00 0.00 49 1009.2
20260508023503 57 0 0.0 0.0 0.00 0.00 0.00 48 1009.0
20260508022003 59 0 0.0 0.0 0.00 0.00 0.00 46 1009.0
20260508021508 59 0 0.0 0.0 0.00 0.00 0.00 45 1008.9
20260508021003 60 0 0.0 0.0 0.00 0.00 0.00 45 1008.8
20260508020503 60 0 0.0 0.0 0.00 0.00 0.00 44 1008.7
20260508020008 61 0 0.0 0.0 0.00 0.00 0.00 44 1008.6
20260508015503 61 0 0.0 0.0 0.00 0.00 0.00 42 1008.6
20260508015004 62 0 0.0 0.0 0.00 0.00 0.00 40 1008.6
20260508014507 63 0 0.0 0.0 0.00 0.00 0.00 39 1008.6
20260508014004 64 0 0.0 0.0 0.00 0.00 0.00 37 1008.6
20260508013504 65 25 0.0 1.0 0.00 0.00 0.00 37 1008.6
20260508013007 65 25 0.0 1.0 0.00 0.00 0.00 35 1008.6
20260508012504 66 0 0.0 0.0 0.00 0.00 0.00 36 1008.5
20260508012003 66 25 0.0 1.0 0.00 0.00 0.00 34 1008.4
20260508011508 67 26 0.0 1.0 0.00 0.00 0.00 33 1008.4
20260508011003 68 25 0.0 2.0 0.00 0.00 0.00 33 1008.3
20260508010503 68 30 0.0 3.0 0.00 0.00 0.00 32 1008.3
20260508010008 69 4 1.0 3.0 0.00 0.00 0.00 31 1008.2
20260508005503 69 352 1.0 3.0 0.00 0.00 0.00 30 1008.1